Hourly Data Report for October 13, 2012

All times are specified in Local Standard Time (LST). Add 1 hour to adjust for Daylight Saving Time where and when it is observed.

ST LEONARD CS
NEW BRUNSWICK

47°09'28.050" N
67°49'55.014" W
245.00 m
810I001
71019
WIY

Download Data

Hourly Data (October 2012)
Hourly Data Report for October 13, 2012
Temp Definition
°C
Dew Point Temp Definition
°C
Rel Hum Definition
%
Wind Dir Definition
10's deg

Wind Spd Definition
km/h
Visibility Definition
km
Stn Press Definition
kPa
Hmdx Definition


Wind Chill Definition


Weather Definition


TIME
00:00 -0.5 -3.4 81 29 13   99.00   -5 LegendNANA
01:00 -1.1 -3.7 82 28 7   99.05   -4 LegendNANA
02:00 -1.2 -4.0 81 28 9   99.07   -4 LegendNANA
03:00 -1.3 -4.6 78 28 13   99.09   -6 LegendNANA
04:00 -1.5 -5.0 77 28 9   99.12   -5 LegendNANA
05:00 -1.7 -5.6 75 28 9   99.15   -5 LegendNANA
06:00 -1.7 -5.4 76 28 7   99.18   -4 LegendNANA
07:00 -2.1 -5.4 78 28 7   99.24   -5 LegendNANA
08:00 -0.2 -5.4 68 27 7   99.27   -3 LegendNANA
09:00 1.0 -6.3 58 28 17   99.31     LegendNANA
10:00 2.2 -5.7 56 29 17   99.30     LegendNANA
11:00 2.9 -6.5 50 28 19   99.30     LegendNANA
12:00 3.1 -5.6 53 28 20   99.28     LegendNANA
13:00 3.5 -5.8 51 30 19   99.25     LegendNANA
14:00 3.7 -6.4 48 29 22   99.27     LegendNANA
15:00 5.1 -5.6 46 29 15   99.27     LegendNANA
16:00 3.7 -7.1 45 28 19   99.29     LegendNANA
17:00 3.6 -6.9 46 29 15   99.32     LegendNANA
18:00 2.4 -6.3 53 28 7   99.34     LegendNANA
19:00 1.2 -6.1 58 28 9   99.38     LegendNANA
20:00 -0.1 -5.9 65 23 4   99.41   -1 LegendNANA
21:00 -0.9 -6.0 68 20 4   99.40   -2 LegendNANA
22:00 -0.7 -6.2 66   0   99.37     LegendNANA
23:00 -0.5 -5.4 69 22 4   99.36   -2 LegendNANA

Notes on Data Quality.

Legend

  • E = Estimated
  • M = Missing
  • NA = Not Available
  • ‡ = Partner data that is not subject to review by the National Climate Archives
Date modified: